Location: River House Observatory
(37.8577°N, 76.3548°W)
Time: 17:24:11
(UTC-04:00)

NOSS 3-1 (C) - Visible Passes

Search period start: 24 April 2014 00:00
Search period end: 04 May 2014 00:00
Orbit: 903 x 1307 km, 63.4° (Epoch: 20 April)

Date Brightness Start Highest point End Pass type
(mag) Time Alt. Az. Time Alt. Az. Time Alt. Az.
24 Apr 6.4 00:05:32 10° N 00:08:18 12° NNE 00:11:09 10° NE visible
24 Apr 4.9 01:54:23 10° NNW 02:01:22 41° NE 02:05:02 27° E visible
24 Apr 4.2 03:45:14 10° NW 03:52:16 47° WSW 03:52:16 47° WSW visible
25 Apr 5.5 01:09:30 10° NNW 01:15:46 29° NE 01:19:31 20° E visible
25 Apr 3.9 02:59:47 10° NW 03:06:49 71° W 03:06:49 71° W visible
26 Apr 5.9 00:24:44 10° N 00:29:59 20° NE 00:34:32 13° ENE visible
26 Apr 4.0 02:14:33 10° NNW 02:21:52 75° NE 02:21:52 75° NE visible
26 Apr 5.5 04:06:48 10° WNW 04:09:11 17° WNW 04:09:11 17° WNW visible
26 Apr 6.2 23:40:12 10° N 23:44:01 15° NNE 23:47:59 10° ENE visible
27 Apr 4.5 01:29:28 10° NNW 01:36:45 51° NE 01:37:11 51° ENE visible
27 Apr 5.1 03:20:43 10° NW 03:24:32 27° WNW 03:24:32 27° WNW visible
27 Apr 6.3 22:56:21 10° N 22:57:53 11° NNE 22:59:25 10° NE visible
28 Apr 5.1 00:44:31 10° NNW 00:51:14 35° NE 00:52:42 33° ENE visible
28 Apr 4.6 02:35:06 10° NW 02:40:03 42° WNW 02:40:03 42° WNW visible
28 Apr 5.6 23:59:41 10° NNW 00:05:33 25° NE 00:08:20 20° ENE visible
29 Apr 4.3 01:49:46 10° NNW 01:55:42 60° NW 01:55:42 60° NW visible
29 Apr 5.9 03:42:55 10° WNW 03:43:03 10° WNW 03:43:03 10° WNW visible
29 Apr 5.9 23:15:01 10° N 23:19:41 18° NE 23:24:04 11° ENE visible
30 Apr 4.3 01:04:36 10° NNW 01:11:26 62° NNE 01:11:26 62° NNE visible
30 Apr 5.5 02:56:20 10° NW 02:58:48 19° WNW 02:58:48 19° WNW visible
30 Apr 6.1 22:30:38 10° N 22:33:38 13° NNE 22:36:43 10° NE visible
01 May 4.7 00:19:35 10° NNW 00:26:38 43° NE 00:27:15 42° ENE visible
01 May 5.0 02:10:30 10° NW 02:14:37 32° WNW 02:14:37 32° WNW visible
01 May 5.2 23:34:41 10° NNW 23:41:03 30° NE 23:43:07 26° ENE visible
02 May 4.5 01:25:02 10° NW 01:30:30 51° NW 01:30:30 51° NW visible
02 May 5.7 22:49:55 10° N 22:55:17 21° NE 22:59:03 15° ENE visible
03 May 4.1 00:39:46 10° NNW 00:46:26 70° N 00:46:26 70° N visible
03 May 5.8 02:32:11 10° WNW 02:33:49 15° WNW 02:33:49 15° WNW visible
03 May 6.0 22:05:20 10° N 22:09:21 15° NNE 22:13:30 10° ENE visible
03 May 4.9 23:54:41 10° NNW 00:00:00 43° N 00:00:00 43° N visible
